Regional Weather Roundup
Issued by NWS

Home | Current Version | Previous Version | Text Only | Print | Product List | Glossary Off
Versions: 1 2 3 4 5 6 7 8 9 10 11 12 13 14 15 16 17 18 19 20 21 22 23 24 25 26 27

000
ASUS45 KTFX 301610
RWRMT
MONTANA REGIONAL WEATHER ROUNDUP
NATIONAL WEATHER SERVICE GREAT FALLS MT
1000 AM MDT MON MAY 30 2016

NOTE: "FAIR" INDICATES FEW OR NO CLOUDS BELOW 12000 FEET WITH NO
SIGNIFICANT WEATHER AND/OR OBSTRUCTIONS TO VISIBILITY.

MTZ001>007-043-301700-
WEST OF THE DIVIDE

CITY           SKY/WX    TMP DP  RH WIND       PRES   REMARKS
KALISPELL      MOSUNNY   53  40  61 CALM      30.16R
MISSOULA       PTSUNNY   60  33  36 NW12      30.16R
BUTTE          PTSUNNY   53  31  42 NW15G22   30.15S
MULLAN PASS    SUNNY     42  31  64 VRB3      30.21R
ANACONDA         N/A     55  34  44 W12G17    30.14R
DEER LODGE       N/A     55  34  44 NW15G21   30.14F
EUREKA           N/A     50  43  76 NW3       30.20R
HAMILTON         N/A     57  28  33 W8        30.15R
LIBBY            N/A     54  39  58 N6        30.19S
$$

MTZ008-052>055-301700-
SOUTHWEST MONTANA

CITY           SKY/WX    TMP DP  RH WIND       PRES   REMARKS
BOZEMAN        PTSUNNY   60  45  57 N7        30.08F
DILLON         MOSUNNY   57  29  34 MISG      30.12R
W YELLOWSTONE  PTSUNNY   50  36  57 W7        30.14S
ENNIS          CLOUDY    54  32  43 NW12G17   30.18R
$$

MTZ009-010-012-014-046-048-049-054-301700-
EAST SLOPES AND CENTRAL MONTANA

CITY           SKY/WX    TMP DP  RH WIND       PRES   REMARKS
CUT BANK       PTSUNNY   45  39  79 NW23G31   30.11R
GREAT FALLS    CLOUDY    48  40  73 NW13      30.12R
MALMSTROM AFB  PTSUNNY   48  42  79 NW12G17   30.12R
HELENA         PTSUNNY   60  31  33 W17G24    30.08R
CHOTEAU          N/A     50  39  66 NW16      30.14R
$$

MTZ011-013-016-021-045-047-050-051-301700-
NORTH CENTRAL MONTANA

CITY           SKY/WX    TMP DP  RH WIND       PRES   REMARKS
HAVRE          CLOUDY    49  44  83 W17       30.03R
LEWISTOWN      CLOUDY    51  43  74 NW14G24   30.06R
N BAR RANCH      N/A     57  41  54 NW17      30.04S
CHINOOK          N/A     52  46  82 W16G22    30.01S
$$

MTZ017>020-022>027-061-062-301700-
NORTHEAST MONTANA

CITY           SKY/WX    TMP DP  RH WIND       PRES   REMARKS
GLASGOW        PTSUNNY   60  49  66 SW6       29.93R
JORDAN           N/A     63  50  62 N5        29.94S
SIDNEY         RAIN      56  53  90 CALM      29.95R
WOLF POINT     LGT RAIN  60  54  80 S5        29.94R
POPLAR           N/A     59  52  77 SW7       29.94F
$$

MTZ028>42-056>058-301700-
SOUTHCENTRAL AND SOUTHEAST MONTANA

CITY           SKY/WX    TMP DP  RH WIND       PRES   REMARKS
BAKER          CLOUDY    57  53  86 N13       29.95F
BILLINGS       PTSUNNY   61  40  45 W10       30.01F
LIVINGSTON     CLOUDY    54  45  71 CALM      30.05F
MILES CITY     CLOUDY    59  51  75 NE8       29.93F
FORSYTH          N/A     59  54  82 W7        29.96F
$$

REGIONAL REPORTS...DAKOTAS

CITY           SKY/WX    TMP DP  RH WIND       PRES   REMARKS
WILLISTON      CLOUDY    59  46  62 SW6       29.93S
MINOT          CLOUDY    73  54  51 NE5       29.88S
DICKINSON      CLOUDY    57  49  74 NE16      29.86F
BEACH          PTSUNNY   54  54 100 N13       29.97F
CROSBY           N/A     64  45  48 CALM      29.92S
WATFORD CITY   LGT RAIN  55  55 100 N5        29.92F
BISMARCK       SUNNY     72  57  59 SE7       29.88F
GRAND FORKS    PTSUNNY   70  54  56 SE7       29.90F
FARGO          SUNNY     78  53  41 S8        29.91F
BUFFALO SD       N/A     66  55  67 NE10      29.82F
RAPID CITY     CLOUDY    69  56  62 SE6       29.85F
$$

REGIONAL REPORTS...WYOMING/IDAHO/WASHINGTON

CITY           SKY/WX    TMP DP  RH WIND       PRES   REMARKS
GILLETTE       PTSUNNY   56  46  69 NW15      29.99R
SHERIDAN       PTSUNNY   58  47  66 NW7       30.02S
BUFFALO WY       N/A     55  44  66 N21G30    30.03R
CODY           MOSUNNY   57  46  67 N10       30.04S
YELLOWSTONE LA   N/A     49  35  58 VRB6      30.17F
IDAHO FALLS    SUNNY     59  46  62 SW14      30.12S
SALMON         MOSUNNY   57  36  44 N5        30.13S
BOISE          SUNNY     59  40  49 NW12      30.17S
SPOKANE        PTSUNNY   56  35  45 CALM      30.22R
$$

REGIONAL REPORTS...ALBERTA

CITY           SKY/WX    TMP DP  RH WIND       PRES   REMARKS
EDMONTON       LGT RAIN  46  41  81 NW14G23   30.10R
CALGARY        PTSUNNY   48  36  61 NW25G32   30.11R
LETHBRIDGE     PTSUNNY   46  43  87 NW18G30   30.11R
MEDICINE HAT   CLOUDY    48  43  81 NW22G32   29.97R
WATERTON GATE    N/A     48  36  61 NE3         N/A
MILK RIVER       N/A     43  41  93 NW18G24     N/A
$$

REGIONAL REPORTS...SASKATCHEWAN

CITY           SKY/WX    TMP DP  RH WIND       PRES   REMARKS
SWIFT CURRENT  PTSUNNY   55  46  71 NW17      29.89S
REGINA         CLOUDY    64  46  52 E6        29.87F
SASKATOON      PTSUNNY   55  48  76 NE16      29.96R
CYPRESS HILLS    N/A     46  41  81 W9          N/A
VAL MARIE        N/A     55  48  76 W16         N/A
ROCKGLEN         N/A     55  46  71 W16         N/A
ASSINIBOIA       N/A     48  48 100 NW16G22     N/A
$$




USA.gov is the U.S. government's official web portal to all federal, state and local government web resources and services.